SCP
0 0 0 0 0 0 0 0 0 0 0 0 0 0 0 0 0 0 0 0 0 0 0 0 0 0 0 0 0 0 0 0 0 -0 -0 0 -0 -0 0 0 0 0 0 0
0 0 0 0 0 0 0 0 0 0 0 0 0 0 0 0 0 0 0 0 0 0 0 0 0 0 0 0 -0 0 0 0 0 -0 -0 -0 -0 -0 -0 -0 0 0 0 0
0 0 0 0 0 0 0 0 0 0 0 0 0 0 0 0 0 0 0 0 0 0 0 -0 -0 -0 0 0 -0 -0 -0 0 0 -0 -0 -0 -0 -0 0 0 0 0 0 0
0 0 0 0 0 0 0 0 0 0 0 0 0 0 0 0 0 0 0 0 0 0 0 -0 0 0 0 0 -0 -0 -0 -0 0 0 0 -0 -0 -0 0 -0 -0 0 -0 -0
0 0 0 0 0 0 0 0 0 0 0 0 0 0 0 0 0 0 0 0 0 0 0 -0 -0 -0 -0 0 0 -0 -0 -0 -0 -0 -0 -0 -0 -0 0 0 0 0 0 0
0 0 0 0 0 0 0 0 0 0 0 0 0 0 0 0 0 0 0 0 0 0 0 -0 -0 -0 -0 0 0 0 -0 0 0 -0 -0 -0 -0 -0 0 0 0 0 0 0
0 0 0 0 0 0 0 0 0 0 0 0 0 0 0 0 0 0 0 0 0 0 0 0 -0 -0 -0 0 0 0 0 0 0 0 0 -0 -0 -0 -0 -0 -0 -0 -0 -0
0 0 0 0 0 0 0 0 0 0 0 0 0 0 0 0 0 0 0 0 0 0 0 0 0 -0 -0 -0 0 0 0 0 0 0 0 0 0 0 0 -0 -0 -0 -0 -0
0 0 0 0 0 0 0 0 0 -0 0 0 0 0 0 0 0 0 0 0 0 0 0 0 0 0 -0 0 0 0 0 0 0 0 0 0 0 0 0 0 0 0 0 0
0 0 0 0 0 0 0 0 0 -0 0 -0 0 0 0 0 0 0 0 0 0 0 0 0 0 0 0 0 0 0 0 0 0 0 0 0 0 0 0 0 0 0 0 0
0 0 0 0 0 0 0 -0 -0 -0 -0 -0 0 0 0 0 0 0 0 0 0 0 0 0 0 0 0 0 0 0 0 0 0 0 0 0 0 0 0 0 0 0 0 0
0 0 0 0 0 0 0 0 0 -0 -0 -0 0 0 0 0 0 0 0 0 0 0 0 0 0 0 0 0 0 0 0 0 0 0 0 0 0 0 0 0 0 0 0 0
0 0 0 0 0 0 0 0 -0 -0 -0 -0 0 0 0 0 0 0 0 0 0 0 0 0 0 0 0 0 0 0 0 0 0 0 0 0 0 0 0 0 0 0 0 0
0 0 -0 -0 0 0 -0 -0 -0 -0 -0 0 0 0 0 0 0 0 0 0 0 0 0 0 0 0 0 0 0 0 0 0 0 0 0 0 0 0 0 0 0 0 0 0
0 0 0 0 0 0 0 0 0 -0 -0 0 0 0 0 0 0 0 0 0 0 0 0 0 0 0 0 0 0 0 0 0 0 0 0 0 0 0 0 0 0 0 0 0
-0 -0 -0 -0 0 0 0 0 0 0 0 0 0 0 0 0 0 0 0 0 0 0 0 0 0 0 0 0 0 0 0 0 0 0 0 0 0 0 0 0 0 0 0 0
-0 -0 0 -0 -0 0 0 0 0 0 0 0 0 0 0 0 0 0 0 0 0 0 0 0 0 0 0 0 0 0 0 0 0 0 0 0 0 0 0 0 0 0 0 0
0 0 0 -0 -0 -0 0 0 0 0 0 0 0 0 0 0 0 0 0 0 0 0 0 0 0 0 0 0 0 0 0 0 0 0 0 0 0 0 0 0 0 0 0 0
0 0 0 0 0 0 0 0 0 0 0 0 0 0 0 0 0 0 0 0 0 0 0 0 0 0 0 0 0 0 0 0 0 0 0 0 0 0 0 0 0 0 0 0
0 0 0 0 0 0 -0 -0 0 0 0 0 0 0 0 0 0 0 0 0 0 0 0 0 0 0 0 0 0 0 0 0 0 0 0 0 0 0 0 0 0 0 0 0
0 0 0 0 0 0 0 -0 0 0 0 0 0 0 0 0 0 0 0 0 0 0 0 0 0 0 0 0 0 0 0 0 0 0 0 0 0 0 0 0 0 0 0 0
0 0 0 0 0 0 0 0 0 0 0 0 0 0 0 0 0 0 0 0 0 0 0 0 0 0 0 0 0 0 0 0 0 0 0 0 0 0 0 0 0 0 0 0
-0 0 0 0 0 0 0 0 0 0 0 0 0 0 0 0 0 0 0 0 0 0 0 0 0 0 0 0 0 0 0 0 0 0 0 0 0 0 0 0 0 0 0 0
0 0 0 0 0 0 0 0 0 0 0 0 0 0 0 0 0 0 0 0 0 0 0 0 0 0 0 0 0 0 0 0 0 0 0 0 0 0 0 0 0 0 0 0
0 0 0 0 0 0 0 0 0 0 0 0 0 0 0 0 0 0 0 0 0 0 0 0 0 0 0 0 0 0 0 0 0 0 0 0 0 0 0 0 0 0 0 0
0 0 0 0 0 0 0 0 0 0 0 0 0 0 0 0 0 0 0 0 0 0 0 0 0 0 0 0 0 0 0 0 0 0 0 0 0 0 0 0 0 0 0 0
0 0 0 0 0 0 0 0 0 0 0 0 0 0 0 0 0 0 0 0 0 0 0 0 0 0 0 0 0 0 0 0 0 0 0 0 0 0 0 0 0 0 0 0
Wind_Speed_500mb
9 10 7 10 12 21 34 35 16 11 16 13 18 20 28 29 29 35 39 41 41 37 37 31 27 24 22 15 13 15 28 34 31 26 18 19 19 20 28 31 37 40 37 32
8 5 6 10 17 15 23 6 10 3 13 19 29 25 23 37 36 40 39 44 45 39 43 40 33 29 27 21 17 19 35 37 33 29 24 21 25 17 25 34 36 36 33 30
11 2 4 18 19 20 13 12 24 28 46 7 10 17 30 39 41 43 34 34 43 44 47 44 38 35 32 26 24 26 39 39 36 35 29 26 28 31 34 36 35 31 30 30
6 4 15 9 4 10 36 26 36 13 18 28 19 35 29 36 37 43 37 35 39 39 48 47 44 41 37 33 32 34 41 42 39 39 35 33 32 34 35 37 35 36 37 33
8 10 21 29 7 14 17 20 35 43 40 24 19 8 33 44 38 44 38 37 36 32 41 49 53 51 45 40 39 44 46 47 46 43 42 40 38 35 35 35 38 34 34 32
6 9 18 2 5 22 12 13 13 40 40 35 21 10 27 35 28 39 42 39 41 39 42 53 61 58 50 44 45 50 52 50 48 44 39 39 38 40 42 41 43 39 38 32
25 14 16 15 7 25 12 10 16 50 55 33 20 40 28 22 27 28 30 37 39 37 45 60 65 64 56 48 47 54 57 52 50 49 47 42 39 40 41 36 33 31 22 25
11 12 30 16 11 20 20 34 36 19 36 60 66 50 46 30 32 35 40 41 37 42 51 63 67 65 57 51 52 57 63 58 52 49 47 45 44 42 37 29 22 16 16 28
18 13 9 24 10 29 22 32 43 28 21 33 44 50 45 42 41 40 38 37 39 45 54 63 71 66 60 56 55 58 63 64 59 55 51 46 40 34 27 20 16 16 25 28
3 14 18 34 35 40 44 48 49 45 34 28 36 42 45 44 46 42 40 41 45 51 56 71 73 65 55 57 57 56 60 64 63 60 54 47 42 36 33 30 27 28 31 30
14 14 14 35 37 46 48 53 65 65 45 32 36 37 46 47 46 42 40 41 45 50 58 74 74 69 63 57 58 58 57 58 58 57 53 50 45 41 37 34 28 28 32 31
21 11 30 41 61 66 71 75 67 60 53 39 50 36 43 47 41 42 40 41 46 49 59 74 73 73 69 62 58 59 59 60 59 58 56 49 45 44 41 35 32 29 26 24
37 34 41 39 29 32 34 38 39 33 26 35 37 58 46 51 39 36 37 40 46 51 62 71 71 73 70 67 63 60 56 57 56 55 54 54 49 40 38 37 34 31 27 24
45 44 40 35 43 48 56 68 76 78 48 36 34 44 47 45 40 45 40 37 43 52 63 68 70 72 70 68 65 62 57 54 55 54 49 49 48 45 38 30 28 26 25 22
75 76 73 70 70 64 63 62 63 62 55 45 46 44 47 43 48 52 38 40 49 55 63 67 71 72 71 69 67 64 62 59 55 53 51 48 47 45 46 43 36 34 34 33
70 74 77 70 67 69 70 72 74 69 56 45 38 48 54 55 60 53 51 52 58 65 66 69 70 69 70 69 67 65 63 59 58 58 57 55 52 49 47 42 40 36 35 33
69 65 68 65 75 84 88 69 70 70 67 56 53 53 53 69 67 60 59 56 54 52 59 63 63 68 69 68 68 68 67 64 62 61 60 57 53 50 46 43 41 39 36 33
77 80 76 71 80 79 69 64 61 58 55 56 54 53 60 77 79 68 68 63 60 60 61 62 64 66 67 70 71 68 68 68 66 62 59 57 55 51 48 46 45 45 44 38
92 96 96 88 85 83 76 75 70 63 54 49 53 53 56 76 80 72 70 66 64 63 64 65 65 64 66 71 73 72 72 70 68 66 61 58 56 54 53 50 47 44 41 38
87 95 94 90 88 94 104 100 88 66 58 55 48 55 59 74 82 74 71 69 70 66 60 59 62 62 64 68 72 74 74 72 71 67 64 63 61 58 54 49 46 44 41 39
65 76 81 88 95 105 110 100 76 64 62 63 56 57 62 76 78 76 76 76 73 67 56 60 66 63 66 67 70 74 76 75 73 71 72 70 65 61 57 50 51 46 46 47
40 48 54 57 63 66 66 64 63 62 62 64 63 63 64 73 77 79 77 78 72 65 64 65 64 65 66 65 69 74 75 75 73 72 70 68 61 59 63 64 58 56 53 52
30 33 37 46 52 48 50 51 52 53 55 62 63 66 68 75 81 83 81 71 66 63 61 61 61 62 63 65 67 69 69 67 67 65 62 61 62 66 68 68 64 57 56 55
18 20 24 29 34 39 41 40 44 45 47 53 54 59 68 77 76 72 66 67 67 66 66 63 61 58 56 59 62 62 62 63 63 62 62 63 66 66 67 66 64 63 60 56
12 8 10 15 27 31 33 35 37 40 47 52 55 59 65 71 77 77 73 73 69 69 67 62 59 60 61 62 62 59 57 55 53 56 61 63 64 66 66 66 63 59 57 55
15 8 2 12 18 21 24 28 34 38 40 45 50 54 59 62 65 73 75 75 75 71 67 65 63 62 60 59 56 55 55 56 58 61 61 61 62 64 64 61 58 56 55 54
12 9 9 14 18 21 24 27 32 40 44 49 52 49 47 52 61 63 63 64 63 63 64 62 59 59 59 58 57 57 58 59 59 60 61 60 61 59 58 57 56 57 56 55
Wind_Direction_500mb
253 264 232 213 216 200 210 216 195 227 205 235 219 213 214 212 208 206 211 218 223 234 227 219 211 203 192 181 185 159 149 142 133 125 115 81 69 92 106 124 132 139 144 158
281 292 258 261 244 196 227 295 305 282 275 224 242 205 217 226 216 221 227 232 226 228 220 218 210 202 191 174 175 168 152 147 138 129 114 98 101 106 100 130 136 146 158 149
266 326 321 285 205 197 194 207 207 228 238 144 249 239 207 219 217 220 223 223 219 225 226 217 207 200 190 174 168 165 154 151 142 133 124 110 101 109 109 108 117 135 123 127
260 359 230 238 193 224 210 218 207 216 238 230 221 228 242 230 223 229 230 227 226 223 219 208 201 191 188 175 166 164 159 154 145 138 127 113 121 111 113 120 116 121 125 121
205 214 294 289 207 159 179 248 210 217 235 229 201 236 260 238 237 249 249 238 231 224 213 200 193 188 186 177 170 164 161 152 147 144 136 126 118 120 121 121 119 115 113 114
177 218 226 228 201 200 145 262 227 204 225 218 162 220 250 238 244 238 229 225 216 207 200 195 187 186 184 180 173 165 159 149 150 148 144 135 131 128 123 120 116 112 110 109
217 244 267 236 161 142 152 253 227 197 219 172 200 224 249 229 227 216 208 202 197 204 198 189 186 183 182 181 176 164 159 157 156 154 153 155 148 142 134 131 124 121 112 116
210 211 257 185 128 211 239 252 279 297 231 210 226 223 224 216 202 194 189 191 197 190 184 185 185 183 180 178 172 168 166 162 162 160 161 160 160 151 146 140 128 122 135 139
191 218 269 210 218 240 245 286 290 308 335 253 243 228 214 205 195 192 197 197 193 188 183 187 183 185 177 175 177 170 172 168 166 166 165 165 167 169 171 175 180 163 149 143
160 239 242 260 257 269 288 285 296 304 316 310 253 232 216 204 196 200 202 201 194 188 189 185 181 182 182 178 177 175 170 177 177 175 174 176 177 180 185 187 181 165 159 156
258 251 302 284 291 275 286 293 296 295 304 317 296 252 226 205 205 201 202 201 201 196 190 186 178 179 182 181 180 178 173 170 173 176 180 180 178 176 173 172 167 168 166 169
240 220 227 250 263 267 275 283 291 299 310 310 296 263 233 222 209 205 201 199 198 196 191 185 180 180 182 182 185 183 178 174 174 174 173 175 176 174 173 174 172 169 169 168
264 271 276 278 281 283 298 300 308 311 315 304 275 266 237 224 211 210 203 202 198 192 186 186 183 185 185 185 185 188 185 181 181 182 181 177 177 182 183 181 180 177 176 177
279 289 302 291 286 284 286 288 293 297 296 290 275 237 234 224 220 212 208 203 196 190 187 188 189 189 190 189 189 189 187 190 188 187 189 186 183 178 184 192 193 184 177 178
264 273 278 284 289 286 285 288 290 288 291 293 283 277 241 233 232 220 203 202 199 194 191 191 192 192 193 193 193 191 190 189 192 192 191 194 192 190 188 186 189 190 191 191
261 267 274 271 274 281 283 282 283 284 282 279 267 257 228 232 239 222 209 204 199 198 194 195 195 194 195 195 195 195 194 192 193 193 194 194 197 193 193 188 189 194 198 198
247 246 246 258 269 271 275 282 281 278 276 279 273 266 248 221 225 216 214 209 206 203 200 198 195 194 196 197 198 198 195 193 194 196 197 195 198 196 196 196 197 195 194 194
249 252 257 265 273 271 271 279 287 285 275 269 267 258 246 231 224 219 215 210 204 199 200 197 197 198 197 199 200 199 200 196 196 199 199 197 199 201 200 199 199 197 195 190
253 256 258 263 261 263 267 278 284 283 274 264 252 250 242 232 222 217 214 210 208 203 201 199 198 199 201 200 200 200 200 198 198 198 201 200 198 201 202 201 199 198 197 193
252 253 254 253 249 256 266 270 276 271 267 257 246 240 234 225 222 214 209 211 211 207 206 203 205 200 205 206 204 201 201 199 199 197 198 199 199 199 198 198 196 191 189 193
255 252 251 250 250 253 257 266 263 258 259 246 237 232 230 222 214 212 208 209 210 205 205 215 207 201 206 207 204 202 201 198 197 197 197 199 197 194 192 194 199 198 193 191
270 265 262 259 253 254 255 252 249 248 243 236 226 222 218 212 209 206 208 211 208 205 203 206 200 201 203 201 200 198 196 196 196 198 199 198 195 199 199 195 196 191 191 188
276 264 255 247 247 244 240 237 237 235 231 226 221 216 212 208 205 202 200 199 202 200 197 196 194 192 194 196 195 195 193 192 193 195 196 197 200 201 197 192 189 190 189 187
297 272 255 242 230 222 222 219 217 210 210 211 208 210 208 199 196 198 199 194 189 188 186 185 184 183 184 188 189 187 187 189 193 195 198 199 198 195 191 188 189 188 186 186
338 310 262 235 216 199 196 197 201 200 196 194 195 195 195 192 193 181 188 185 181 184 181 178 178 178 181 184 186 187 189 190 190 192 193 192 189 187 187 189 187 183 180 179
17 16 184 199 183 171 179 183 187 183 185 179 175 177 179 181 184 179 177 176 175 176 176 175 177 178 179 181 180 180 180 182 184 185 185 183 183 185 185 181 177 176 176 174
47 83 136 141 142 144 150 159 170 167 169 168 167 166 172 172 172 171 169 168 169 169 169 169 170 173 173 173 172 172 173 174 174 175 176 179 179 178 176 174 172 171 170 170
Wind_Speed_850mb
9 10 7 10 12 21 34 35 16 11 16 13 18 20 28 29 29 35 39 41 41 37 37 31 27 24 22 15 13 15 28 34 31 26 18 19 19 20 28 31 37 40 37 32
8 5 6 10 17 15 23 6 10 3 13 19 29 25 23 37 36 40 39 44 45 39 43 40 33 29 27 21 17 19 35 37 33 29 24 21 25 17 25 34 36 36 33 30
11 2 4 18 19 20 13 12 24 28 46 7 10 17 30 39 41 43 34 34 43 44 47 44 38 35 32 26 24 26 39 39 36 35 29 26 28 31 34 36 35 31 30 30
6 4 15 9 4 10 36 26 36 13 18 28 19 35 29 36 37 43 37 35 39 39 48 47 44 41 37 33 32 34 41 42 39 39 35 33 32 34 35 37 35 36 37 33
8 10 21 29 7 14 17 20 35 43 40 24 19 8 33 44 38 44 38 37 36 32 41 49 53 51 45 40 39 44 46 47 46 43 42 40 38 35 35 35 38 34 34 32
6 9 18 2 5 22 12 13 13 40 40 35 21 10 27 35 28 39 42 39 41 39 42 53 61 58 50 44 45 50 52 50 48 44 39 39 38 40 42 41 43 39 38 32
25 14 16 15 7 25 12 10 16 50 55 33 20 40 28 22 27 28 30 37 39 37 45 60 65 64 56 48 47 54 57 52 50 49 47 42 39 40 41 36 33 31 22 25
11 12 30 16 11 20 20 34 36 19 36 60 66 50 46 30 32 35 40 41 37 42 51 63 67 65 57 51 52 57 63 58 52 49 47 45 44 42 37 29 22 16 16 28
18 13 9 24 10 29 22 32 43 28 21 33 44 50 45 42 41 40 38 37 39 45 54 63 71 66 60 56 55 58 63 64 59 55 51 46 40 34 27 20 16 16 25 28
3 14 18 34 35 40 44 48 49 45 34 28 36 42 45 44 46 42 40 41 45 51 56 71 73 65 55 57 57 56 60 64 63 60 54 47 42 36 33 30 27 28 31 30
14 14 14 35 37 46 48 53 65 65 45 32 36 37 46 47 46 42 40 41 45 50 58 74 74 69 63 57 58 58 57 58 58 57 53 50 45 41 37 34 28 28 32 31
21 11 30 41 61 66 71 75 67 60 53 39 50 36 43 47 41 42 40 41 46 49 59 74 73 73 69 62 58 59 59 60 59 58 56 49 45 44 41 35 32 29 26 24
37 34 41 39 29 32 34 38 39 33 26 35 37 58 46 51 39 36 37 40 46 51 62 71 71 73 70 67 63 60 56 57 56 55 54 54 49 40 38 37 34 31 27 24
45 44 40 35 43 48 56 68 76 78 48 36 34 44 47 45 40 45 40 37 43 52 63 68 70 72 70 68 65 62 57 54 55 54 49 49 48 45 38 30 28 26 25 22
75 76 73 70 70 64 63 62 63 62 55 45 46 44 47 43 48 52 38 40 49 55 63 67 71 72 71 69 67 64 62 59 55 53 51 48 47 45 46 43 36 34 34 33
70 74 77 70 67 69 70 72 74 69 56 45 38 48 54 55 60 53 51 52 58 65 66 69 70 69 70 69 67 65 63 59 58 58 57 55 52 49 47 42 40 36 35 33
69 65 68 65 75 84 88 69 70 70 67 56 53 53 53 69 67 60 59 56 54 52 59 63 63 68 69 68 68 68 67 64 62 61 60 57 53 50 46 43 41 39 36 33
77 80 76 71 80 79 69 64 61 58 55 56 54 53 60 77 79 68 68 63 60 60 61 62 64 66 67 70 71 68 68 68 66 62 59 57 55 51 48 46 45 45 44 38
92 96 96 88 85 83 76 75 70 63 54 49 53 53 56 76 80 72 70 66 64 63 64 65 65 64 66 71 73 72 72 70 68 66 61 58 56 54 53 50 47 44 41 38
87 95 94 90 88 94 104 100 88 66 58 55 48 55 59 74 82 74 71 69 70 66 60 59 62 62 64 68 72 74 74 72 71 67 64 63 61 58 54 49 46 44 41 39
65 76 81 88 95 105 110 100 76 64 62 63 56 57 62 76 78 76 76 76 73 67 56 60 66 63 66 67 70 74 76 75 73 71 72 70 65 61 57 50 51 46 46 47
40 48 54 57 63 66 66 64 63 62 62 64 63 63 64 73 77 79 77 78 72 65 64 65 64 65 66 65 69 74 75 75 73 72 70 68 61 59 63 64 58 56 53 52
30 33 37 46 52 48 50 51 52 53 55 62 63 66 68 75 81 83 81 71 66 63 61 61 61 62 63 65 67 69 69 67 67 65 62 61 62 66 68 68 64 57 56 55
18 20 24 29 34 39 41 40 44 45 47 53 54 59 68 77 76 72 66 67 67 66 66 63 61 58 56 59 62 62 62 63 63 62 62 63 66 66 67 66 64 63 60 56
12 8 10 15 27 31 33 35 37 40 47 52 55 59 65 71 77 77 73 73 69 69 67 62 59 60 61 62 62 59 57 55 53 56 61 63 64 66 66 66 63 59 57 55
15 8 2 12 18 21 24 28 34 38 40 45 50 54 59 62 65 73 75 75 75 71 67 65 63 62 60 59 56 55 55 56 58 61 61 61 62 64 64 61 58 56 55 54
12 9 9 14 18 21 24 27 32 40 44 49 52 49 47 52 61 63 63 64 63 63 64 62 59 59 59 58 57 57 58 59 59 60 61 60 61 59 58 57 56 57 56 55
Wind_Direction_850mb
253 264 232 213 216 200 210 216 195 227 205 235 219 213 214 212 208 206 211 218 223 234 227 219 211 203 192 181 185 159 149 142 133 125 115 81 69 92 106 124 132 139 144 158
281 292 258 261 244 196 227 295 305 282 275 224 242 205 217 226 216 221 227 232 226 228 220 218 210 202 191 174 175 168 152 147 138 129 114 98 101 106 100 130 136 146 158 149
266 326 321 285 205 197 194 207 207 228 238 144 249 239 207 219 217 220 223 223 219 225 226 217 207 200 190 174 168 165 154 151 142 133 124 110 101 109 109 108 117 135 123 127
260 359 230 238 193 224 210 218 207 216 238 230 221 228 242 230 223 229 230 227 226 223 219 208 201 191 188 175 166 164 159 154 145 138 127 113 121 111 113 120 116 121 125 121
205 214 294 289 207 159 179 248 210 217 235 229 201 236 260 238 237 249 249 238 231 224 213 200 193 188 186 177 170 164 161 152 147 144 136 126 118 120 121 121 119 115 113 114
177 218 226 228 201 200 145 262 227 204 225 218 162 220 250 238 244 238 229 225 216 207 200 195 187 186 184 180 173 165 159 149 150 148 144 135 131 128 123 120 116 112 110 109
217 244 267 236 161 142 152 253 227 197 219 172 200 224 249 229 227 216 208 202 197 204 198 189 186 183 182 181 176 164 159 157 156 154 153 155 148 142 134 131 124 121 112 116
210 211 257 185 128 211 239 252 279 297 231 210 226 223 224 216 202 194 189 191 197 190 184 185 185 183 180 178 172 168 166 162 162 160 161 160 160 151 146 140 128 122 135 139
191 218 269 210 218 240 245 286 290 308 335 253 243 228 214 205 195 192 197 197 193 188 183 187 183 185 177 175 177 170 172 168 166 166 165 165 167 169 171 175 180 163 149 143
160 239 242 260 257 269 288 285 296 304 316 310 253 232 216 204 196 200 202 201 194 188 189 185 181 182 182 178 177 175 170 177 177 175 174 176 177 180 185 187 181 165 159 156
258 251 302 284 291 275 286 293 296 295 304 317 296 252 226 205 205 201 202 201 201 196 190 186 178 179 182 181 180 178 173 170 173 176 180 180 178 176 173 172 167 168 166 169
240 220 227 250 263 267 275 283 291 299 310 310 296 263 233 222 209 205 201 199 198 196 191 185 180 180 182 182 185 183 178 174 174 174 173 175 176 174 173 174 172 169 169 168
264 271 276 278 281 283 298 300 308 311 315 304 275 266 237 224 211 210 203 202 198 192 186 186 183 185 185 185 185 188 185 181 181 182 181 177 177 182 183 181 180 177 176 177
279 289 302 291 286 284 286 288 293 297 296 290 275 237 234 224 220 212 208 203 196 190 187 188 189 189 190 189 189 189 187 190 188 187 189 186 183 178 184 192 193 184 177 178
264 273 278 284 289 286 285 288 290 288 291 293 283 277 241 233 232 220 203 202 199 194 191 191 192 192 193 193 193 191 190 189 192 192 191 194 192 190 188 186 189 190 191 191
261 267 274 271 274 281 283 282 283 284 282 279 267 257 228 232 239 222 209 204 199 198 194 195 195 194 195 195 195 195 194 192 193 193 194 194 197 193 193 188 189 194 198 198
247 246 246 258 269 271 275 282 281 278 276 279 273 266 248 221 225 216 214 209 206 203 200 198 195 194 196 197 198 198 195 193 194 196 197 195 198 196 196 196 197 195 194 194
249 252 257 265 273 271 271 279 287 285 275 269 267 258 246 231 224 219 215 210 204 199 200 197 197 198 197 199 200 199 200 196 196 199 199 197 199 201 200 199 199 197 195 190
253 256 258 263 261 263 267 278 284 283 274 264 252 250 242 232 222 217 214 210 208 203 201 199 198 199 201 200 200 200 200 198 198 198 201 200 198 201 202 201 199 198 197 193
252 253 254 253 249 256 266 270 276 271 267 257 246 240 234 225 222 214 209 211 211 207 206 203 205 200 205 206 204 201 201 199 199 197 198 199 199 199 198 198 196 191 189 193
255 252 251 250 250 253 257 266 263 258 259 246 237 232 230 222 214 212 208 209 210 205 205 215 207 201 206 207 204 202 201 198 197 197 197 199 197 194 192 194 199 198 193 191
270 265 262 259 253 254 255 252 249 248 243 236 226 222 218 212 209 206 208 211 208 205 203 206 200 201 203 201 200 198 196 196 196 198 199 198 195 199 199 195 196 191 191 188
276 264 255 247 247 244 240 237 237 235 231 226 221 216 212 208 205 202 200 199 202 200 197 196 194 192 194 196 195 195 193 192 193 195 196 197 200 201 197 192 189 190 189 187
297 272 255 242 230 222 222 219 217 210 210 211 208 210 208 199 196 198 199 194 189 188 186 185 184 183 184 188 189 187 187 189 193 195 198 199 198 195 191 188 189 188 186 186
338 310 262 235 216 199 196 197 201 200 196 194 195 195 195 192 193 181 188 185 181 184 181 178 178 178 181 184 186 187 189 190 190 192 193 192 189 187 187 189 187 183 180 179
17 16 184 199 183 171 179 183 187 183 185 179 175 177 179 181 184 179 177 176 175 176 176 175 177 178 179 181 180 180 180 182 184 185 185 183 183 185 185 181 177 176 176 174
47 83 136 141 142 144 150 159 170 167 169 168 167 166 172 172 172 171 169 168 169 169 169 169 170 173 173 173 172 172 173 174 174 175 176 179 179 178 176 174 172 171 170 170